$DATE,$TIME,DM0600B,DM0602B,DM0604B,DM0614B,DM0616B,DM0618B,DM0624B,DM0628B,DM0630B,DM0634B,DM0606B,DM0608B,DM0610B
12/04/94,00:00:00,54,42,28,32,0,30,29,80,43,0,6,6,7
12/04/94,00:05:00,42,30,26,37,0,31,30,80,50,0,6,7,6
12/04/94,00:10:00,39,36,35,37,0,31,30,83,50,0,6,6,7
12/04/94,00:15:00,55,41,39,33,0,30,29,83,50,0,6,6,7
12/04/94,00:20:00,31,31,35,41,0,29,28,83,50,0,6,6,6
12/04/94,00:25:00,47,50,31,41,0,27,26,83,52,0,7,5,6
12/04/94,00:30:00,45,46,41,35,0,27,25,83,52,0,7,5,7
12/04/94,00:35:00,44,32,35,33,0,27,26,83,52,0,7,5,6
12/04/94,00:40:00,39,40,47,38,0,27,25,83,50,0,6,5,6
12/04/94,00:45:00,28,40,47,45,0,26,25,83,50,0,6,5,7
12/04/94,00:50:00,44,41,31,37,0,26,25,83,50,0,6,5,8
12/04/94,00:55:00,36,41,41,37,0,26,25,83,50,0,6,5,7
12/04/94,01:00:00,44,26,41,36,0,28,27,83,50,0,6,6,7
12/04/94,01:05:00,34,45,41,35,0,27,26,83,50,0,6,6,7
12/04/94,01:10:00,40,39,33,31,0,26,25,82,44,0,6,6,7
12/04/94,01:15:00,30,41,30,34,0,24,23,82,52,0,6,6,7
12/04/94,01:20:00,41,29,34,36,0,22,22,82,44,0,6,5,7
12/04/94,01:25:00,45,48,35,36,0,20,19,82,42,0,6,5,6
12/04/94,01:30:00,48,30,40,34,0,17,16,82,42,0,7,5,7
12/04/94,01:35:00,40,31,35,31,0,16,15,82,42,0,7,5,7
12/04/94,01:40:00,33,26,39,34,0,15,14,82,42,0,7,5,7
12/04/94,01:45:00,50,48,28,40,0,14,14,82,42,0,7,5,7
12/04/94,01:50:00,51,33,40,33,0,14,13,82,44,0,7,5,7
12/04/94,01:55:00,40,37,33,35,0,13,13,82,44,0,6,6,7
12/04/94,02:00:00,31,41,34,35,0,12,12,82,44,0,6,6,7
12/04/94,02:05:00,39,42,39,35,0,12,11,82,42,0,6,6,7
12/04/94,02:10:00,38,38,35,35,0,12,11,82,42,0,6,5,7
12/04/94,02:15:00,33,35,47,36,0,12,12,82,42,0,7,5,7
12/04/94,02:20:00,45,41,36,36,0,13,13,82,46,0,7,5,7
12/04/94,02:25:00,41,33,33,39,0,14,13,82,45,0,7,5,7
12/04/94,02:30:00,42,33,31,40,0,14,14,83,45,0,7,5,6
12/04/94,02:35:00,40,29,37,41,0,16,15,83,47,0,8,5,6
12/04/94,02:40:00,25,31,51,34,0,16,16,83,52,0,8,5,7
12/04/94,02:45:00,42,29,38,36,0,17,16,83,47,0,7,5,6
12/04/94,02:50:00,49,42,34,37,0,17,16,83,45,0,7,6,6
12/04/94,02:55:00,43,44,27,28,0,17,16,83,45,0,7,6,7
12/04/94,03:00:00,39,34,35,39,0,17,16,83,45,0,7,6,7
12/04/94,03:05:00,28,41,41,40,0,17,17,82,45,0,6,5,7
12/04/94,03:10:00,40,33,37,38,0,17,16,82,45,0,6,5,7
12/04/94,03:15:00,42,36,32,39,0,17,17,83,45,0,7,5,7
12/04/94,03:20:00,49,30,38,38,0,17,17,82,47,0,7,5,6
12/04/94,03:25:00,54,42,35,34,0,17,17,82,39,0,7,5,6
12/04/94,03:30:00,38,34,34,36,0,18,17,82,37,0,6,5,6
12/04/94,03:35:00,45,37,33,35,0,17,17,82,37,0,6,5,6
12/04/94,03:40:00,39,42,37,34,0,17,17,82,37,0,7,5,6
12/04/94,03:45:00,50,47,37,38,0,18,17,82,37,0,7,6,6
12/04/94,03:50:00,36,40,39,35,0,18,17,82,37,0,7,6,6
12/04/94,03:55:00,41,36,35,36,0,18,17,82,37,0,7,6,6
12/04/94,04:00:00,37,43,31,35,0,18,18,82,39,0,7,6,7
12/04/94,04:05:00,51,50,30,34,0,18,17,82,39,0,7,5,7
12/04/94,04:10:00,46,47,33,40,0,18,18,82,39,0,7,5,7
12/04/94,04:15:00,47,44,28,35,0,18,18,82,37,0,7,5,7
12/04/94,04:20:00,47,48,33,37,0,20,19,82,37,0,6,5,6
12/04/94,04:25:00,48,36,36,37,0,19,18,82,37,0,7,6,6
12/04/94,04:30:00,47,43,37,35,0,19,18,82,37,0,7,5,6
12/04/94,04:35:00,45,48,36,35,0,20,19,82,37,0,7,5,6
12/04/94,04:40:00,44,34,37,35,0,22,21,82,37,0,7,6,6
12/04/94,04:45:00,43,47,31,37,0,24,23,82,39,0,7,6,6
12/04/94,04:50:00,43,44,32,34,0,26,25,82,39,0,7,6,6
12/04/94,04:55:00,54,44,42,31,0,26,25,82,55,0,7,6,6
12/04/94,05:00:00,46,47,34,36,0,28,27,82,49,0,7,6,6
12/04/94,05:05:00,46,46,33,34,0,30,28,82,49,0,7,6,7
12/04/94,05:10:00,53,59,32,46,0,31,30,203,49,0,7,6,7
12/04/94,05:15:00,56,42,44,56,0,35,33,204,49,0,7,6,7
12/04/94,05:20:00,55,32,46,45,0,36,34,83,49,0,6,6,7
12/04/94,05:25:00,45,35,45,35,0,36,34,82,51,0,7,6,7
12/04/94,05:30:00,48,47,32,34,0,36,34,82,52,0,7,6,7
12/04/94,05:35:00,45,33,37,34,0,35,34,79,43,0,7,7,7
12/04/94,05:40:00,41,45,27,33,0,35,33,79,41,0,7,7,7
12/04/94,05:45:00,51,32,30,33,0,33,32,79,41,0,7,6,7
12/04/94,05:50:00,35,54,33,31,0,34,33,79,41,0,8,6,6
12/04/94,05:55:00,54,35,34,34,0,34,33,79,41,0,7,6,7
12/04/94,06:00:00,54,43,28,27,0,34,32,79,41,0,7,6,7
12/04/94,06:05:00,51,45,32,31,0,36,34,79,41,0,7,6,7
12/04/94,06:10:00,52,40,31,32,0,37,35,79,43,0,7,6,8
12/04/94,06:15:00,52,57,32,30,0,38,36,79,43,0,7,6,7
12/04/94,06:20:00,54,46,34,31,0,34,32,79,43,0,7,6,7
12/04/94,06:25:00,54,44,26,31,0,30,29,79,41,0,8,6,7
12/04/94,06:30:00,47,40,32,33,0,28,27,79,41,0,7,6,7
12/04/94,06:35:00,48,46,38,30,0,27,26,79,37,0,7,7,7
12/04/94,06:40:00,39,44,29,34,0,25,24,80,37,0,7,7,7
12/04/94,06:45:00,41,44,29,31,0,25,24,80,37,0,7,6,7
12/04/94,06:50:00,45,39,29,33,0,25,24,79,37,0,8,6,6
12/04/94,06:55:00,50,49,30,34,0,25,24,79,39,0,8,6,6
12/04/94,07:00:00,48,14,0,42,0,24,23,80,39,0,8,6,7
12/04/94,07:05:00,58,15,2,12,0,24,23,81,40,0,7,6,7
12/04/94,07:10:00,52,17,14,19,0,25,24,81,38,0,7,6,7
12/04/94,07:15:00,72,13,12,18,0,26,25,81,38,0,7,6,8
12/04/94,07:20:00,69,3,17,8,0,25,24,81,38,0,7,6,7
12/04/94,07:25:00,76,17,13,16,0,25,24,83,45,0,7,7,7
12/04/94,07:30:00,74,14,13,53,0,25,24,81,46,0,7,7,7
12/04/94,07:35:00,67,10,20,51,0,24,23,83,45,0,7,6,7
12/04/94,07:40:00,67,9,12,49,0,22,21,80,40,0,7,6,7
12/04/94,07:45:00,65,10,9,47,0,18,17,80,40,0,7,6,7
12/04/94,07:50:00,59,7,13,45,0,17,17,80,34,0,7,6,7
12/04/94,07:55:00,61,7,8,47,0,19,18,80,34,0,7,6,7
12/04/94,08:00:00,66,6,14,46,0,17,17,80,34,0,8,6,7
12/04/94,08:05:00,63,10,14,47,0,16,15,80,34,0,7,6,7
12/04/94,08:10:00,64,7,19,47,0,17,16,80,34,0,8,6,7
12/04/94,08:15:00,59,10,21,48,0,18,17,80,34,0,7,6,7
12/04/94,08:20:00,64,8,16,45,0,18,18,80,34,0,8,6,8
12/04/94,08:25:00,56,25,47,39,0,16,16,80,36,0,7,6,7
12/04/94,08:30:00,53,39,39,35,0,17,17,79,36,0,8,6,7
12/04/94,08:35:00,51,44,32,31,0,18,18,79,34,0,8,6,7
12/04/94,08:40:00,48,32,36,29,0,18,18,79,34,0,7,6,7
12/04/94,08:45:00,53,39,40,30,0,17,16,79,34,0,8,6,7
12/04/94,08:50:00,53,42,39,32,0,17,16,80,34,0,7,6,7
12/04/94,08:55:00,49,35,41,30,0,17,16,79,34,0,8,6,7
12/04/94,09:00:00,48,33,38,31,0,16,16,80,34,0,8,6,7
12/04/94,09:05:00,53,38,36,31,0,14,14,80,34,0,8,6,7
12/04/94,09:10:00,51,38,45,31,0,13,12,80,36,0,8,6,7
12/04/94,09:15:00,55,33,43,28,0,14,14,80,36,0,8,6,7
12/04/94,09:20:00,50,40,43,31,0,14,14,79,34,0,7,6,7
12/04/94,09:25:00,55,36,43,32,0,18,17,79,33,0,8,6,8
12/04/94,09:30:00,55,34,39,32,0,23,22,79,34,0,8,6,7
12/04/94,09:35:00,48,35,41,30,0,25,24,79,33,0,7,6,7
12/04/94,09:40:00,49,38,38,31,0,24,23,79,34,0,7,6,7
12/04/94,09:45:00,50,35,39,28,0,22,21,79,34,0,7,6,6
12/04/94,09:50:00,54,42,35,33,0,18,17,79,36,0,7,6,6
12/04/94,09:55:00,49,37,41,31,0,16,16,79,36,0,8,6,6
12/04/94,10:00:00,53,37,41,30,0,14,13,79,36,0,8,6,6
12/04/94,10:05:00,49,39,37,29,0,13,12,79,34,0,8,6,6
12/04/94,10:10:00,51,37,44,29,0,13,13,79,34,0,8,6,6
12/04/94,10:15:00,55,34,45,33,0,14,14,79,34,0,8,7,6
12/04/94,10:20:00,55,37,37,33,0,15,14,79,34,0,8,7,6
12/04/94,10:25:00,52,35,43,28,0,15,14,79,34,0,8,7,6
12/04/94,10:30:00,40,31,38,23,0,14,14,79,34,0,8,6,8
12/04/94,10:35:00,0,0,0,0,0,14,14,81,36,0,8,7,8
12/04/94,10:40:00,0,0,0,0,0,14,14,82,37,0,17,16,13
12/04/94,10:45:00,4,6,10,0,0,15,14,82,37,0,25,29,20
12/04/94,10:50:00,5,5,4,0,0,15,14,83,35,0,21,22,19
12/04/94,10:55:00,0,0,13,3,0,15,14,83,35,0,31,26,23
12/04/94,11:00:00,0,0,0,0,0,15,15,83,35,0,27,35,29
12/04/94,11:05:00,0,0,0,0,0,17,16,83,35,0,33,24,23
12/04/94,11:10:00,0,0,0,0,0,17,16,83,35,0,30,32,26
12/04/94,11:15:00,0,0,0,0,0,16,16,83,35,0,29,34,33
12/04/94,11:20:00,0,0,0,0,0,16,15,84,37,0,34,28,32
12/04/94,11:25:00,0,0,0,0,0,16,15,87,53,0,29,36,28
12/04/94,11:30:00,0,0,0,0,0,15,15,85,37,0,38,37,30
12/04/94,11:35:00,0,0,0,0,0,15,14,84,35,0,32,30,38
12/04/94,11:40:00,0,0,0,0,0,16,15,85,35,0,40,39,33
12/04/94,11:45:00,0,0,0,0,0,16,16,84,35,0,34,32,28
12/04/94,11:50:00,0,0,0,0,0,16,15,84,35,0,37,32,34
12/04/94,11:55:00,0,0,0,0,0,14,13,85,35,0,37,40,39
12/04/94,12:00:00,0,0,0,0,0,14,13,85,36,0,31,29,33
12/04/94,12:05:00,0,0,0,0,0,11,11,85,38,0,39,36,28
12/04/94,12:10:00,0,0,0,0,0,13,12,85,38,0,31,37,38
12/04/94,12:15:00,0,0,0,0,0,15,14,85,38,0,40,32,37
12/04/94,12:20:00,0,0,0,0,0,14,14,85,36,0,32,40,31
12/04/94,12:25:00,0,0,0,0,0,15,14,85,36,0,41,31,31
12/04/94,12:30:00,0,0,0,0,0,15,15,85,36,0,32,34,41
12/04/94,12:35:00,0,0,0,0,0,15,14,85,36,0,40,41,34
12/04/94,12:40:00,0,0,0,0,0,14,14,85,36,0,32,29,29
12/04/94,12:45:00,0,0,0,0,0,14,13,85,36,0,40,36,37
12/04/94,12:50:00,0,0,0,0,0,15,14,85,38,0,31,43,39
12/04/94,12:55:00,0,0,0,0,0,15,14,85,38,0,41,30,33
12/04/94,13:00:00,0,0,0,0,0,12,12,85,38,0,31,39,29
12/04/94,13:05:00,0,0,0,0,0,11,11,85,36,0,40,41,41
12/04/94,13:10:00,0,0,1,0,0,11,11,85,36,0,35,32,37
12/04/94,13:15:00,0,0,0,0,0,12,11,85,36,0,39,40,30
12/04/94,13:20:00,0,0,0,0,0,12,12,85,36,0,31,35,36
12/04/94,13:25:00,0,0,10,0,0,13,13,85,36,0,40,34,39
12/04/94,13:30:00,13,22,23,22,0,14,14,85,36,0,32,42,36
12/04/94,13:35:00,0,0,0,0,0,14,13,85,38,0,42,29,30
12/04/94,13:40:00,0,0,0,0,0,15,15,85,38,0,33,38,36
12/04/94,13:45:00,0,0,0,0,0,12,11,85,38,0,41,39,39
12/04/94,13:50:00,0,0,0,0,0,12,11,85,36,0,36,32,33
12/04/94,13:55:00,0,0,0,0,0,13,12,85,36,0,41,41,32
12/04/94,14:00:00,0,0,0,0,0,11,10,85,36,0,36,41,41
12/04/94,14:05:00,20,14,10,0,0,11,10,85,36,0,35,30,33
12/04/94,14:10:00,11,25,41,9,0,13,12,84,36,0,38,36,25
12/04/94,14:15:00,4,15,32,11,0,14,13,83,35,0,22,26,23
12/04/94,14:20:00,12,13,16,13,0,14,14,83,35,0,27,20,23
12/04/94,14:25:00,13,29,23,20,0,14,14,82,37,0,18,28,19
12/04/94,14:30:00,39,31,49,20,0,18,17,82,36,0,14,19,13
12/04/94,14:35:00,43,46,48,43,0,19,18,81,34,0,13,14,11
12/04/94,14:40:00,47,28,49,34,0,19,18,81,34,0,12,12,10
12/04/94,14:45:00,0,0,0,0,0,17,16,82,34,0,12,10,9
12/04/94,14:50:00,0,0,0,0,0,16,15,83,35,0,15,15,13
12/04/94,14:55:00,0,0,0,0,0,15,15,83,35,0,27,29,22
12/04/94,15:00:00,0,0,0,0,0,16,15,84,35,0,23,22,23
12/04/94,15:05:00,0,0,0,0,0,17,16,84,35,0,32,29,22
12/04/94,15:10:00,0,0,0,0,0,14,13,84,37,0,29,33,32
12/04/94,15:15:00,0,0,0,0,0,14,13,84,37,0,30,27,31
12/04/94,15:20:00,0,0,0,0,0,15,14,85,37,0,35,36,27
12/04/94,15:25:00,0,0,0,0,0,14,14,85,36,0,29,33,28
12/04/94,15:30:00,0,0,0,0,0,16,16,85,36,0,38,32,37
12/04/94,15:35:00,0,0,0,0,0,12,11,85,36,0,33,39,34
12/04/94,15:40:00,0,0,0,0,0,15,15,85,36,0,38,30,29
12/04/94,15:45:00,0,0,0,0,0,22,21,85,36,0,36,35,31
12/04/94,15:50:00,0,0,0,0,0,21,20,85,36,0,30,39,38
12/04/94,15:55:00,0,0,0,0,0,20,19,85,38,0,39,30,36
12/04/94,16:00:00,0,0,0,0,0,22,21,85,38,0,31,38,30
12/04/94,16:05:00,0,0,0,0,0,25,24,85,38,0,38,32,29
12/04/94,16:10:00,0,0,0,0,0,21,21,85,36,0,36,34,39
12/04/94,16:15:00,0,0,0,0,0,20,20,85,36,0,33,41,36
12/04/94,16:20:00,0,0,0,0,0,20,19,85,36,0,38,29,31
12/04/94,16:25:00,0,0,0,0,0,19,18,85,36,0,31,38,28
12/04/94,16:30:00,0,0,0,0,0,21,20,85,46,0,41,33,36
12/04/94,16:35:00,0,0,0,0,0,21,21,85,36,0,35,34,39
12/04/94,16:40:00,0,0,0,0,0,22,21,85,38,0,37,41,32
12/04/94,16:45:00,0,0,0,0,0,23,22,85,38,0,37,29,29
12/04/94,16:50:00,0,0,0,0,0,17,16,85,38,0,34,38,36
12/04/94,16:55:00,0,0,0,0,0,18,17,85,36,0,38,43,39
12/04/94,17:00:00,0,0,0,0,0,20,19,86,36,0,32,31,34
12/04/94,17:05:00,0,0,0,0,0,14,14,86,36,0,41,39,29
12/04/94,17:10:00,0,0,0,0,0,15,14,86,36,0,34,33,37
12/04/94,17:15:00,0,0,0,0,0,17,16,86,36,0,42,35,40
12/04/94,17:20:00,0,0,0,0,0,15,14,86,36,0,35,42,33
12/04/94,17:25:00,0,0,0,0,0,16,16,86,38,0,42,29,30
12/04/94,17:30:00,0,0,0,0,0,20,19,86,46,0,33,37,41
12/04/94,17:35:00,0,0,0,0,0,20,19,86,38,0,41,42,37
12/04/94,17:40:00,0,0,0,0,0,21,20,86,36,0,34,31,31
12/04/94,17:45:00,0,0,0,0,0,22,21,85,36,0,40,40,35
12/04/94,17:50:00,0,0,0,0,0,23,22,85,36,0,36,32,40
12/04/94,17:55:00,0,0,0,0,0,22,22,87,36,0,40,35,35
12/04/94,18:00:00,0,0,0,0,0,24,23,87,36,0,37,40,30
12/04/94,18:05:00,0,0,0,0,0,0,0,87,36,0,32,33,33
12/04/94,18:10:00,0,0,0,0,0,0,0,87,38,0,40,36,42
12/04/94,18:15:00,0,0,0,0,0,23,23,87,38,0,42,40,35
12/04/94,18:20:00,0,0,0,0,0,23,23,87,38,0,34,36,30
12/04/94,18:25:00,0,0,0,0,0,25,24,87,36,0,42,35,40
12/04/94,18:30:00,0,0,0,0,0,26,25,87,36,0,35,41,37
12/04/94,18:35:00,0,0,0,0,0,27,26,87,36,0,40,30,31
12/04/94,18:40:00,0,0,0,0,0,27,26,87,36,0,37,38,29
12/04/94,18:45:00,0,0,0,0,0,27,26,87,36,0,30,28,38
12/04/94,18:50:00,0,3,10,0,0,29,27,87,36,0,40,36,32
12/04/94,18:55:00,3,5,4,0,0,28,27,87,45,0,31,32,26
12/04/94,19:00:00,0,3,15,8,0,29,27,87,49,0,28,32,31
12/04/94,19:05:00,11,22,23,4,0,27,26,86,37,0,34,28,29
12/04/94,19:10:00,23,7,13,8,0,36,34,86,35,0,22,25,20
12/04/94,19:15:00,46,21,44,22,0,37,35,84,38,0,22,26,20
12/04/94,19:20:00,64,80,59,51,0,35,34,83,34,0,16,17,14
12/04/94,19:25:00,59,18,54,39,0,37,36,83,42,0,13,13,11
12/04/94,19:30:00,53,6,43,47,0,39,37,82,42,0,12,11,10
12/04/94,19:35:00,40,24,40,42,0,37,35,83,42,0,10,10,9
12/04/94,19:40:00,44,29,40,44,0,40,38,82,44,0,10,9,9
12/04/94,19:45:00,37,44,57,51,0,40,38,191,36,0,10,8,9
12/04/94,19:50:00,49,37,43,55,0,37,35,191,37,0,10,7,8
12/04/94,19:55:00,37,25,47,44,0,38,36,79,35,0,10,7,8
12/04/94,20:00:00,56,23,35,44,0,37,35,79,35,0,9,7,8
12/04/94,20:05:00,56,30,31,41,0,34,33,78,35,0,9,6,8
12/04/94,20:10:00,54,36,42,43,0,32,31,78,44,0,9,7,8
12/04/94,20:15:00,46,31,47,43,0,33,32,78,44,0,9,7,8
12/04/94,20:20:00,47,35,38,39,0,33,32,78,44,0,9,7,9
12/04/94,20:25:00,54,29,43,40,0,33,32,78,46,0,9,7,8
12/04/94,20:30:00,41,33,39,37,0,34,33,78,46,0,9,7,8
12/04/94,20:35:00,58,33,41,38,0,35,33,78,44,0,9,6,7
12/04/94,20:40:00,44,24,37,37,0,36,34,78,44,0,9,6,8
12/04/94,20:45:00,60,27,45,26,0,37,35,78,44,0,9,6,7
12/04/94,20:50:00,58,24,36,40,0,37,35,78,47,0,9,6,7
12/04/94,20:55:00,41,33,38,31,0,38,36,78,48,0,9,6,7
12/04/94,21:00:00,45,28,29,33,0,40,39,78,47,0,8,6,7
12/04/94,21:05:00,52,35,32,26,0,42,40,79,49,0,8,7,7
12/04/94,21:10:00,27,33,34,34,0,45,43,79,49,0,8,7,7
12/04/94,21:15:00,41,41,25,28,0,47,45,79,49,0,7,7,7
12/04/94,21:20:00,44,47,37,35,0,47,45,78,47,0,8,7,7
12/04/94,21:25:00,43,31,26,31,0,50,48,78,47,0,8,7,8
12/04/94,21:30:00,35,24,28,28,0,54,52,78,47,0,8,6,8
12/04/94,21:35:00,32,47,28,34,0,60,57,78,47,0,8,6,8
12/04/94,21:40:00,47,42,33,35,0,65,63,78,55,0,8,6,8
12/04/94,21:45:00,50,29,25,30,0,62,60,78,55,0,8,6,7
12/04/94,21:50:00,47,36,33,33,0,74,71,78,59,0,7,6,7
12/04/94,21:55:00,39,25,26,33,0,74,71,78,59,0,8,6,7
12/04/94,22:00:00,35,29,33,30,0,75,72,78,59,0,8,7,7
12/04/94,22:05:00,42,37,24,25,0,74,71,78,57,0,8,7,7
12/04/94,22:10:00,37,32,21,26,0,68,65,78,57,0,8,7,7
12/04/94,22:15:00,41,47,23,27,0,64,61,78,57,0,7,7,7
12/04/94,22:20:00,43,42,36,33,0,65,62,78,57,0,7,6,7
12/04/94,22:25:00,39,31,32,29,0,65,62,78,57,0,8,6,7
12/04/94,22:30:00,31,28,40,32,0,60,58,78,68,0,8,6,8
12/04/94,22:35:00,51,48,32,27,0,58,55,78,61,0,8,6,8
12/04/94,22:40:00,39,31,27,27,0,59,57,78,61,0,8,6,8
12/04/94,22:45:00,48,38,31,34,0,57,55,78,61,0,8,6,7
12/04/94,22:50:00,55,33,25,28,0,62,59,78,59,0,8,6,7
12/04/94,22:55:00,36,20,25,23,0,58,55,78,59,0,8,7,7
12/04/94,23:00:00,43,31,31,28,0,53,51,78,59,0,8,7,7
12/04/94,23:05:00,44,41,23,30,0,57,56,78,59,0,7,6,7
12/04/94,23:10:00,39,32,33,25,0,64,61,78,59,0,7,6,7
12/04/94,23:15:00,36,28,35,27,0,60,57,78,59,0,7,6,7
12/04/94,23:20:00,43,55,36,25,0,69,66,78,61,0,7,6,7
12/04/94,23:25:00,36,29,35,29,0,68,66,78,61,0,7,5,7
12/04/94,23:30:00,43,32,30,27,0,79,76,78,61,0,8,5,7
12/04/94,23:35:00,44,30,32,21,0,84,80,78,59,0,8,5,8
12/04/94,23:40:00,40,25,25,29,0,86,82,78,59,0,8,5,7
12/04/94,23:45:00,35,40,30,32,0,83,80,78,59,0,8,5,7
12/04/94,23:50:00,27,47,20,30,0,77,73,78,59,0,8,5,7
12/04/94,23:55:00,45,24,31,15,0,79,75,78,51,0,7,6,7
12/05/94,00:00:00,43,32,32,17,0,72,69,78,52,0,7,6,7
